Hourly Weather Bolshoe Bushkovo

Today, 20 June, Sunday

Time Temperature Precipitation Wind Pressure Humidity
00:00 +19°C° 0 mm 2 mps 750 mmHg 91%
01:00 +19°C° 0 mm 2 mps 750 mmHg 92%
02:00 +19°C° 0 mm 2 mps 750 mmHg 93%
03:00 +19°C° 0 mm 2 mps 750 mmHg 93%
04:00 +20°C° 0 mm 2 mps 750 mmHg 93%
05:00 +20°C° 0 mm 2 mps 750 mmHg 93%
06:00 +21°C° 0 mm 2 mps 750 mmHg 88%
07:00 +24°C° 0 mm 2 mps 750 mmHg 83%
08:00 +25°C° 0 mm 2 mps 750 mmHg 78%
09:00 +26°C° 0 mm 3 mps 750 mmHg 74%
10:00 +27°C° 0 mm 3 mps 750 mmHg 70%
11:00 +28°C° 0 mm 4 mps 750 mmHg 66%
12:00 +28°C° 0 mm 4 mps 750 mmHg 64%
13:00 +29°C° 0 mm 3 mps 749 mmHg 61%
14:00 +29°C° 0 mm 3 mps 749 mmHg 59%
15:00 +29°C° 0 mm 3 mps 749 mmHg 62%
16:00 +29°C° 0 mm 3 mps 749 mmHg 65%
17:00 +29°C° 0 mm 3 mps 748 mmHg 68%
18:00 +27°C° 0 mm 3 mps 748 mmHg 72%
19:00 +26°C° 0 mm 2 mps 748 mmHg 77%
20:00 +24°C° 0 mm 2 mps 748 mmHg 81%
21:00 +23°C° 0 mm 2 mps 748 mmHg 82%
22:00 +21°C° 0 mm 2 mps 748 mmHg 83%
23:00 +20°C° 0 mm 2 mps 748 mmHg 84%

Tomorrow, 21 June, Monday

Time Temperature Precipitation Wind Pressure Humidity
00:00 +20°C° 0 mm 2 mps 748 mmHg 84%
01:00 +20°C° 0 mm 2 mps 748 mmHg 85%
02:00 +19°C° 0 mm 2 mps 748 mmHg 85%
03:00 +19°C° 0 mm 2 mps 748 mmHg 87%
04:00 +19°C° 0 mm 2 mps 748 mmHg 89%
05:00 +19°C° 0 mm 3 mps 748 mmHg 90%
06:00 +20°C° 0 mm 3 mps 748 mmHg 85%
07:00 +22°C° 0 mm 4 mps 748 mmHg 80%
08:00 +23°C° 0 mm 4 mps 747 mmHg 75%
09:00 +26°C° 0 mm 5 mps 747 mmHg 70%
10:00 +27°C° 0 mm 5 mps 747 mmHg 65%
11:00 +28°C° 0 mm 5 mps 747 mmHg 60%
12:00 +28°C° 0 mm 5 mps 747 mmHg 60%
13:00 +29°C° 0 mm 5 mps 747 mmHg 60%
14:00 +29°C° 0 mm 5 mps 747 mmHg 59%
15:00 +29°C° 0 mm 5 mps 746 mmHg 62%
16:00 +29°C° 0 mm 5 mps 746 mmHg 65%
17:00 +29°C° 0 mm 5 mps 746 mmHg 68%
18:00 +27°C° 0 mm 4 mps 746 mmHg 73%
19:00 +26°C° 0 mm 4 mps 746 mmHg 79%
20:00 +23°C° 0 mm 4 mps 746 mmHg 84%
21:00 +23°C° 0 mm 4 mps 746 mmHg 86%
22:00 +22°C° 0 mm 4 mps 746 mmHg 88%
23:00 +21°C° 0 mm 4 mps 746 mmHg 89%

Day after tomorrow, 22 June, Tuesday

Time Temperature Precipitation Wind Pressure Humidity
00:00 +20°C° 0 mm 4 mps 746 mmHg 91%
01:00 +20°C° 0 mm 3 mps 746 mmHg 94%
02:00 +20°C° 0 mm 3 mps 746 mmHg 96%
03:00 +20°C° 0 mm 3 mps 746 mmHg 95%
04:00 +20°C° 0 mm 3 mps 746 mmHg 94%
05:00 +20°C° 0 mm 3 mps 746 mmHg 93%
06:00 +21°C° 0 mm 4 mps 747 mmHg 87%
07:00 +23°C° 0 mm 4 mps 747 mmHg 81%
08:00 +25°C° 0 mm 4 mps 747 mmHg 75%
09:00 +27°C° 0 mm 5 mps 747 mmHg 70%
10:00 +28°C° 0 mm 5 mps 747 mmHg 65%
11:00 +29°C° 0 mm 5 mps 747 mmHg 60%
12:00 +30°C° 0 mm 5 mps 747 mmHg 57%
13:00 +30°C° 0 mm 5 mps 747 mmHg 55%
14:00 +32°C° 0 mm 5 mps 747 mmHg 53%
15:00 +32°C° 0 mm 4 mps 747 mmHg 56%
16:00 +30°C° 0 mm 4 mps 747 mmHg 60%
17:00 +30°C° 0 mm 4 mps 747 mmHg 64%
18:00 +28°C° 0 mm 4 mps 747 mmHg 70%
19:00 +27°C° 0 mm 3 mps 747 mmHg 76%
20:00 +25°C° 0 mm 3 mps 747 mmHg 82%
21:00 +24°C° 0 mm 3 mps 747 mmHg 85%
22:00 +22°C° 0 mm 3 mps 747 mmHg 88%
23:00 +21°C° 0 mm 3 mps 747 mmHg 91%

23 June, Wednesday

Time Temperature Precipitation Wind Pressure Humidity
00:00 +20°C° 0 mm 3 mps 747 mmHg 91%
01:00 +20°C° 0 mm 3 mps 748 mmHg 92%
02:00 +19°C° 0 mm 3 mps 748 mmHg 92%
03:00 +20°C° 0 mm 3 mps 748 mmHg 92%
04:00 +20°C° 0 mm 2 mps 748 mmHg 92%
05:00 +20°C° 0 mm 2 mps 748 mmHg 92%
06:00 +22°C° 0 mm 3 mps 748 mmHg 86%
07:00 +25°C° 0 mm 3 mps 748 mmHg 80%
08:00 +27°C° 0 mm 4 mps 748 mmHg 75%
09:00 +28°C° 0 mm 4 mps 748 mmHg 70%
10:00 +29°C° 0 mm 4 mps 748 mmHg 66%
11:00 +32°C° 0 mm 5 mps 749 mmHg 61%
12:00 +32°C° 0 mm 5 mps 749 mmHg 59%
13:00 +33°C° 0 mm 4 mps 749 mmHg 56%
14:00 +33°C° 0 mm 4 mps 749 mmHg 53%
15:00 +33°C° 0 mm 4 mps 748 mmHg 57%
16:00 +33°C° 0 mm 3 mps 748 mmHg 61%
17:00 +31°C° 0 mm 3 mps 748 mmHg 65%
18:00 +30°C° 0 mm 3 mps 748 mmHg 70%
19:00 +28°C° 0 mm 3 mps 748 mmHg 76%
20:00 +27°C° 0 mm 3 mps 748 mmHg 81%
21:00 +26°C° 0 mm 3 mps 748 mmHg 84%
22:00 +25°C° 0 mm 3 mps 748 mmHg 88%
23:00 +24°C° 0 mm 3 mps 748 mmHg 91%

24 June, Thursday

Time Temperature Precipitation Wind Pressure Humidity
00:00 +22°C° 0 mm 3 mps 749 mmHg 92%
01:00 +23°C° 0 mm 2 mps 749 mmHg 93%
02:00 +21°C° 0 mm 2 mps 749 mmHg 94%
03:00 +23°C° 0 mm 2 mps 749 mmHg 94%
04:00 +23°C° 0 mm 2 mps 749 mmHg 93%
05:00 +23°C° 0 mm 2 mps 749 mmHg 92%
06:00 +24°C° 0 mm 2 mps 749 mmHg 86%
07:00 +26°C° 0 mm 2 mps 749 mmHg 80%
08:00 +28°C° 0 mm 3 mps 749 mmHg 73%
09:00 +29°C° 0 mm 3 mps 749 mmHg 68%
10:00 +30°C° 0 mm 3 mps 749 mmHg 62%
11:00 +32°C° 0 mm 4 mps 749 mmHg 57%
12:00 +33°C° 0 mm 4 mps 749 mmHg 54%
13:00 +33°C° 0 mm 4 mps 748 mmHg 52%
14:00 +34°C° 0 mm 4 mps 748 mmHg 49%
15:00 +34°C° 0 mm 4 mps 748 mmHg 53%
16:00 +33°C° 0 mm 3 mps 748 mmHg 57%
17:00 +33°C° 0 mm 3 mps 748 mmHg 61%
18:00 +30°C° 0 mm 3 mps 747 mmHg 67%
19:00 +29°C° 0 mm 3 mps 747 mmHg 73%
20:00 +27°C° 0 mm 3 mps 746 mmHg 78%
21:00 +25°C° 0.4 mm 2 mps 747 mmHg 83%
22:00 +23°C° 0.4 mm 2 mps 747 mmHg 87%
23:00 +21°C° 0.4 mm 2 mps 747 mmHg 91%

25 June, Friday

Time Temperature Precipitation Wind Pressure Humidity
00:00 +21°C° 0.2 mm 2 mps 747 mmHg 91%
01:00 +21°C° 0.2 mm 2 mps 747 mmHg 91%
02:00 +21°C° 0.2 mm 2 mps 746 mmHg 91%
03:00 +21°C° 0 mm 2 mps 746 mmHg 92%
04:00 +21°C° 0 mm 2 mps 746 mmHg 92%
05:00 +23°C° 0 mm 2 mps 746 mmHg 93%
06:00 +24°C° 0 mm 3 mps 746 mmHg 88%
07:00 +26°C° 0 mm 3 mps 746 mmHg 84%
08:00 +27°C° 0 mm 4 mps 746 mmHg 79%
09:00 +28°C° 0 mm 4 mps 746 mmHg 72%
10:00 +29°C° 0 mm 4 mps 746 mmHg 65%
11:00 +32°C° 0 mm 4 mps 746 mmHg 59%
12:00 +32°C° 0 mm 4 mps 746 mmHg 55%
13:00 +33°C° 0 mm 4 mps 745 mmHg 52%
14:00 +33°C° 0 mm 4 mps 745 mmHg 48%
15:00 +33°C° 0 mm 4 mps 745 mmHg 52%
16:00 +32°C° 0 mm 4 mps 745 mmHg 56%
17:00 +31°C° 0 mm 3 mps 744 mmHg 60%
18:00 +29°C° 0 mm 3 mps 744 mmHg 65%
19:00 +27°C° 0 mm 3 mps 743 mmHg 70%
20:00 +26°C° 0 mm 3 mps 743 mmHg 75%
21:00 +25°C° 0 mm 3 mps 743 mmHg 76%
22:00 +24°C° 0 mm 3 mps 743 mmHg 77%
23:00 +22°C° 0 mm 3 mps 743 mmHg 77%
Show more